Hourly Weather Roundup
Issued by NWS Central Illinois

Home | Current Version | Previous Version | Text Only | Print | Product List | Glossary On
Versions: 1 2 3 4 5 6 7 8 9 10 11 12 13 14 15 16 17 18 19 20 21 22 23 24 25 26 27 28 29 30 31 32 33 34 35 36 37 38 39 40 41 42 43 44 45 46 47 48 49 50
522
NZUS43 KILX 220810
HWRILX

AREA WEATHER ROUNDUP
NATIONAL WEATHER SERVICE, LINCOLN IL
200 AM CST WED FEB 22 2017


CITY           SKY/WX    TMP DP  RH WIND       PRES   REMARKS
BLOOMINGTON    CLEAR     49  48  97 SW8       29.88R FOG
CHAMPAIGN      PTCLDY    50  47  89 S7        29.87S FOG
DECATUR        CLOUDY    52  50  93 S7        29.87R FOG
EFFINGHAM      FOG       48  48 100 SE3       29.90S VSB 1/4
FLORA          FOG       50  50  99 CALM      29.90R VSB 1/4
GALESBURG      FOG       45  45 100 CALM      29.84F VSB<1/4
JACKSONVILLE   FOG       51  51 100 S6        29.87S VSB<1/4
LACON          FOG       55  55 100 SW3       29.85S VSB 3/4
LAWRENCEVILLE  FOG       51  51 100 SE3       29.90R VSB 1/4
LITCHFIELD     FOG       48  48 100 S5        29.87F VSB 1/4
$$


CITY           SKY/WX    TMP DP  RH WIND       PRES   REMARKS
LINCOLN        FOG       49  49 100 CALM      29.88R VSB<1/4
MACOMB         FOG       47  47 100 SE5       29.87S VSB 1/4
MATTOON        MOCLDY    53  53 100 S5        29.86F FOG
MT CARMEL AP   CLOUDY    51  50  97 CALM      29.89S FOG
OLNEY-NOBLE AP FOG       52  52 100 CALM      29.90R VSB 1/4
PARIS          MOCLDY    52  52 100 S7        29.88F FOG
PEORIA         FOG       55  55 100 SW7       29.86S VSB 1/4
PONTIAC        FOG       47  46  98 CALM      29.87S VSB 1/4
RANTOUL        CLOUDY    50  50  98 S3        29.87S FOG
SPRINGFIELD    CLEAR     52  51  97 SW5       29.88R FOG
TAYLORVILLE    CLOUDY    49  49  99 S6        29.88S FOG
$$

...REGIONAL REPORTS...


CITY           SKY/WX    TMP DP  RH WIND       PRES   REMARKS
CHICAGO O`HARE PTCLDY    51  49  92 S8        29.82F FOG
KANKAKEE       CLOUDY    49  48  98 CALM      29.87S FOG
MOLINE         CLEAR     54  51  90 SW8       29.81F
MOUNT STERLING FOG       50  50 100 S5        29.85F VSB<1/4
MOUNT VERNON   CLOUDY    48  48 100 CALM      29.89S FOG
PITTSFIELD     FOG       54  54 100 S6        29.88F VSB<1/4
QUINCY         FOG       52  52 100 S8        29.86S VSB 1/4
ROCKFORD       FOG       45  43  93 S5        29.84F VSB 1/8
$$


CITY           SKY/WX    TMP DP  RH WIND       PRES   REMARKS
BURLINGTON     FOG       52  52 100 SW9       29.83F VSB 1/2
CEDAR RAPIDS   CLEAR     44  44 100 S7        29.78F
DES MOINES     CLEAR     51  32  48 S10       29.77S
KIRKSVILLE     CLEAR     54  53  97 S9        29.84F
OTTUMWA        CLEAR     46  35  65 S10       29.80S
ST LOUIS       CLOUDY    55  51  86 CALM      29.88S
$$


CITY           SKY/WX    TMP DP  RH WIND       PRES   REMARKS
TERRE HAUTE    CLOUDY    52  50  93 CALM      29.88F FOG
EVANSVILLE     CLOUDY    58  54  86 S5        29.89F
INDIANAPOLIS   CLOUDY    53  52  96 SE6       29.89F FOG
LAFAYETTE      CLOUDY    53  51  93 S5        29.87S
MADISON        CLEAR     44  39  82 S7        29.78F
MILWAUKEE      CLEAR     42  39  89 SE3       29.80F
$$






USA.gov is the U.S. government's official web portal to all federal, state and local government web resources and services.